Regional Weather Roundup
Issued by NWS State College, PA

Home | Current Version | Previous Version | Graphics & Text | Print | Product List | Glossary On
Versions: 1 2 3 4 5 6 7 8 9 10 11 12 13 14 15 16 17 18 19 20 21 22 23 24 25 26 27 28 29 30 31 32 33 34 35 36 37 38 39 40 41 42 43 44 45 46 47 48 49 50
000
ASUS41 KCTP 260103
RWRCTP

REGIONAL WEATHER ROUNDUP
NATIONAL WEATHER SERVICE STATE COLLEGE PA
900 PM EDT FRI JUL 25 2014

Note: "fair" indicates few or no clouds below 12,000 feet with no
significant weather and/or obstructions to visibility.

* = STATION THAT DOES NOT REPORT PRECIPITATION /E.G. RAIN...SNOW...ETC/
    THUNDER OR FOG.

PAZ002>004-007>009-013>016-020>023-029>032-260200-
WESTERN PENNSYLVANIA

CITY           SKY/WX    TMP DP  RH WIND       PRES   REMARKS
ERIE           PTCLDY    67  55  65 CALM      30.00S
MEADVILLE      PTCLDY    65  53  65 CALM      30.02S
FRANKLIN*      PTCLDY    64  52  63 CALM      30.04R
NEW CASTLE       N/A     62  57  83 CALM      30.02S
BEAVER COUNTY  CLEAR     70  54  56 CALM      30.02S
BUTLER*        PTCLDY    64  54  68 CALM      30.03S
PITTSBURGH INT MOCLDY    72  55  55 SW5       30.01S
PITTSBURGH     PTCLDY    72  52  49 SW5       30.01S
INDIANA*       CLEAR     68  55  64 CALM      30.07R
LATROBE        PTCLDY    68  61  77 CALM      30.03S
WASHINGTON CO* CLEAR     63  55  77 CALM      30.03S
$$

PAZ004>006-010>012-017>019-024>028-033>037-041-042-045-046-049>053-260200-
CENTRAL PENNSYLVANIA

CITY           SKY/WX    TMP DP  RH WIND       PRES   REMARKS
BRADFORD       CLEAR     60  51  72 CALM      30.03F
DUBOIS         PTCLDY    64  53  67 S3        30.03S
CLEARFIELD     PTCLDY    63  55  75 N6        30.03S
JOHNSTOWN      PTCLDY    65  48  54 S3        30.06S
ALTOONA        MOCLDY    66  55  67 S3        30.03F
STATE COLLEGE  PTCLDY    70  52  52 CALM      30.02S
WILLIAMSPORT   PTCLDY    68  56  65 E5        29.98S
SELINSGROVE    CLEAR     62  59  90 CALM      30.00S
FT INDIANTOWN  CLEAR     63  56  78 N2        30.02S
CAPITAL CITY   CLEAR     68  55  63 CALM      30.01S
HARRISBURG     PTCLDY    69  59  70 S3        30.00S
YORK           CLEAR     64  56  75 CALM      30.02R
$$

PAZ038>040-043-044-047-048-054-055-060>062-067>071-260200-
EASTERN PENNSYLVANIA

CITY           SKY/WX    TMP DP  RH WIND       PRES   REMARKS
SCRANTON       CLEAR     70  52  52 S3        30.01S
MOUNT POCONO   PTCLDY    65  53  65 W3        30.06R
ALLENTOWN      CLEAR     68  54  60 SW5       30.01R
QUAKERTOWN*    CLEAR     68  59  73 CALM      30.03R
READING        CLEAR     74  53  48 SW3       30.01R
LANCASTER      CLEAR     68  56  65 CALM      30.02R
COATESVILLE    CLEAR     68  50  52 CALM      30.04S
POTTSTOWN      CLEAR     72  54  53 CALM      30.03S
BLUE BELL      CLEAR     75  55  50 CALM      30.01R
DOYLESTOWN     PTCLDY    69  60  73 CALM      30.01R
WILLOW GROVE   NOT AVBL
NORTH PHILA    PTCLDY    77  59  53 S5        30.02R
PHILADELPHIA   PTCLDY    77  57  50 SW12      30.02R
$$


USA.gov is the U.S. government's official web portal to all federal, state and local government web resources and services.